Location: Deer Lodge Site
(39.6809°N, 119.9392°W)
Time: 04:13:21
(UTC-08:00)

Amateur Radio Satellites - All Passes

Search period start: 21 November 2017 03:43
Search period end: 22 November 2017 03:43
Location: Deer Lodge Site, 39.6809°N, 119.9392°W

Satellite Date Start Highest point End Downlink Frequencies (MHz)
Time Altitude Azimuth
ITUPSAT 1 21 Nov 03:43:47 03:47:17 20° 266° (W) 03:50:49 437.325
nSIGHT-1 21 Nov 04:01:40 04:04:30 29° 225° (SW) 04:07:18 .
ITAMSAT 1 21 Nov 04:03:24 04:08:37 75° 286° (WNW) 04:13:47 435.822/435.867
CUBESAT XI-V 21 Nov 04:07:42 04:11:54 35° 263° (W) 04:16:07 437.345
KKS-1 21 Nov 04:11:47 04:16:11 61° 75° (ENE) 04:20:38 437.445
BEESAT 2 21 Nov 04:30:15 04:33:29 23° 312° (NW) 04:36:44 435.950
STARS 21 Nov 04:36:27 04:40:39 44° 72° (ENE) 04:44:52 437.465
DOVE 4 21 Nov 04:43:43 04:48:47 52° 99° (E) 04:53:35 437.250
ISS 21 Nov 04:46:18 04:48:05 14° 230° (SW) 04:49:50 437.550
RS-15 21 Nov 04:55:15 05:06:18 50° 250° (WSW) 05:16:49 29.354- 29.394
AO-7 21 Nov 04:56:22 05:03:56 40° 299° (WNW) 05:11:30 .
XW-2B 21 Nov 05:01:21 05:02:41 11° 91° (E) 05:04:00 145.730 - 145.750
STRAND 1 21 Nov 05:04:06 05:05:19 11° 59° (ENE) 05:06:34 437.568
NUDT-PHONESAT 21 Nov 05:16:27 05:17:49 12° 92° (E) 05:19:14 437.300
YUBILEINY 21 Nov 05:16:33 05:25:10 67° 93° (E) 05:33:52 435.215
SO-50 21 Nov 05:17:09 05:20:27 19° 44° (NE) 05:23:48 436.795
AO-85 21 Nov 05:23:41 05:26:27 18° 315° (NW) 05:29:18 145.980
XW-2C 21 Nov 05:25:22 05:28:29 24° 95° (E) 05:31:36 145.795 - 145.815
LilacSat-2 21 Nov 05:27:09 05:30:28 27° 96° (E) 05:33:46 437.200
CUTE-I 21 Nov 05:35:22 05:39:58 28° 96° (E) 05:44:31 437.470
XW-2F 21 Nov 05:35:55 05:39:16 29° 97° (E) 05:42:38 145.980 - 146.000
KKS-1 21 Nov 05:51:27 05:53:07 12° 269° (W) 05:54:47 437.445
KAITUO 1B 21 Nov 06:03:35 06:07:16 51° 100° (E) 06:10:57 145.475/437.950
STARS 21 Nov 06:14:24 06:17:10 16° 267° (W) 06:19:57 437.465
XW-2D 21 Nov 06:18:28 06:22:14 67° 285° (WNW) 06:26:02 145.860 - 145.880
FO-29 21 Nov 06:21:44 06:26:36 21° 58° (ENE) 06:31:48 435.910
DOVE 4 21 Nov 06:22:24 06:25:57 19° 296° (WNW) 06:29:24 437.250
CUBEBUG 2 21 Nov 06:25:06 06:27:33 15° 92° (E) 06:30:00 437.445
XW-2B 21 Nov 06:33:25 06:37:03 44° 286° (WNW) 06:40:41 145.730 - 145.750
STRAND 1 21 Nov 06:38:31 06:43:41 86° 74° (ENE) 06:48:52 437.568
NUDT-PHONESAT 21 Nov 06:48:21 06:51:51 41° 287° (WNW) 06:55:21 437.300
HO-68 21 Nov 06:52:15 06:59:20 57° 102° (ESE) 07:06:20 435.675
SO-50 21 Nov 06:56:41 07:01:16 59° 242° (WSW) 07:05:54 436.795
XW-2C 21 Nov 06:59:35 07:02:32 22° 290° (WNW) 07:05:30 145.795 - 145.815
LilacSat-2 21 Nov 07:01:45 07:04:33 20° 291° (WNW) 07:07:21 437.200
CUTE 1.7 + AOD 2 21 Nov 07:03:18 07:07:36 80° 102° (ESE) 07:11:53 437.475
XW-2F 21 Nov 07:10:33 07:13:09 18° 292° (WNW) 07:15:44 145.980 - 146.000
ZACube-1 21 Nov 07:12:05 07:14:29 15° 92° (E) 07:16:52 437.345
CUTE-I 21 Nov 07:15:10 07:20:01 35° 292° (WNW) 07:24:50 437.470
YUBILEINY 21 Nov 07:15:39 07:22:40 26° 293° (WNW) 07:29:45 435.215
UWE-3 21 Nov 07:20:43 07:24:34 36° 98° (E) 07:28:24 435.000/436.395/437.385
SEEDS 21 Nov 07:33:44 07:38:00 76° 283° (WNW) 07:42:13 437.485
KAITUO 1B 21 Nov 07:39:48 07:40:46 11° 295° (WNW) 07:41:44 145.475/437.950
AAUSAT CUBESAT 2 21 Nov 07:40:23 07:44:30 52° 100° (E) 07:48:34 437.432
PCSat 21 Nov 07:42:18 07:45:16 15° 42° (NE) 07:48:14 145.827
CUBEBUG 2 21 Nov 08:00:28 08:04:21 39° 288° (WNW) 08:08:12 437.445
UNISAT 6 21 Nov 08:01:23 08:04:41 20° 67° (ENE) 08:07:58 437.425
AO-73 21 Nov 08:01:44 08:05:45 49° 99° (E) 08:09:48 145.935
FO-29 21 Nov 08:04:09 08:10:41 76° 258° (WSW) 08:18:05 435.910
TIGRISAT 21 Nov 08:05:41 08:09:01 20° 67° (ENE) 08:12:18 435.000
XW-2A 21 Nov 08:09:19 08:12:34 46° 285° (WNW) 08:15:48 145.665 - 145.685
Oscar 11 21 Nov 08:18:01 08:22:14 51° 99° (E) 08:26:27 .
STRAND 1 21 Nov 08:23:09 08:23:28 10° 271° (W) 08:23:46 437.568
HO-68 21 Nov 08:40:43 08:46:36 28° 299° (WNW) 08:52:27 435.675
ZACube-1 21 Nov 08:47:02 08:50:56 41° 287° (WNW) 08:54:51 437.345
UWE-3 21 Nov 08:58:02 09:00:44 17° 293° (WNW) 09:03:26 435.000/436.395/437.385
PRISM 21 Nov 08:58:11 09:01:38 26° 69° (ENE) 09:05:07 437.425
EO-88 21 Nov 09:13:18 09:15:55 18° 94° (E) 09:18:31 145.990 - 145.960
Max Valier Satellite 21 Nov 09:14:48 09:18:00 28° 97° (E) 09:21:12 145.860
AAUSAT CUBESAT 2 21 Nov 09:17:30 09:19:28 13° 295° (WNW) 09:21:25 437.432
PCSat 21 Nov 09:24:02 09:29:29 85° 59° (ENE) 09:34:54 145.827
UNISAT 6 21 Nov 09:36:51 09:41:07 38° 262° (W) 09:45:20 437.425
FALCONSAT 3 21 Nov 09:38:49 09:41:52 25° 162° (SSE) 09:44:55 435.103
AO-73 21 Nov 09:39:34 09:41:34 13° 295° (WNW) 09:43:35 145.935
TIGRISAT 21 Nov 09:41:10 09:45:26 38° 262° (W) 09:49:38 435.000
DELFI C3 21 Nov 09:44:46 09:48:47 77° 283° (WNW) 09:52:45 145.870
FO-29 21 Nov 09:55:12 09:57:05 11° 278° (W) 09:58:59 435.910
Oscar 11 21 Nov 09:55:36 09:57:55 14° 295° (WNW) 10:00:15 .
BEESAT 3 21 Nov 09:59:44 10:01:12 12° 42° (NE) 10:02:39 437.485
QB50P2 21 Nov 10:02:28 10:05:11 17° 66° (ENE) 10:07:54 145.880/145.840
PRISM 21 Nov 10:33:30 10:36:50 23° 264° (W) 10:40:11 437.425
EO-88 21 Nov 10:46:28 10:49:31 25° 290° (WNW) 10:52:34 145.990 - 145.960
Max Valier Satellite 21 Nov 10:49:09 10:51:36 17° 292° (WNW) 10:54:03 145.860
AIST 2D 21 Nov 10:49:13 10:52:32 45° 261° (W) 10:55:53 435.315
DUCHIFAT 1 21 Nov 10:50:20 10:54:14 38° 72° (ENE) 10:58:09 145.980
EO-79 21 Nov 10:57:38 11:01:49 62° 75° (ENE) 11:06:01 145.935-145.965
NANOSAT C BR1 21 Nov 11:00:45 11:04:54 59° 75° (ENE) 11:09:04 145.865
ESTCUBE 1 21 Nov 11:07:49 11:12:09 43° 99° (E) 11:16:27 437.505/2401.250
LO-87 21 Nov 11:09:39 11:13:11 68° 101° (E) 11:16:40 145.935 - 145.965
PCSat 21 Nov 11:10:12 11:12:05 12° 258° (WSW) 11:13:57 145.827
BEESAT 2 21 Nov 11:10:39 11:13:27 18° 46° (NE) 11:16:13 435.950
POLYITAN 1 21 Nov 11:12:57 11:17:13 87° 262° (W) 11:21:29 437.675
FALCONSAT 3 21 Nov 11:17:04 11:20:34 42° 177° (S) 11:24:05 435.103
VELOX 1 21 Nov 11:30:25 11:30:56 10° 90° (E) 11:31:27 145.980
BEESAT 3 21 Nov 11:35:19 11:39:16 79° 240° (WSW) 11:43:07 437.485
QB50P2 21 Nov 11:36:37 11:40:37 41° 261° (W) 11:44:39 145.880/145.840
BUGSAT 1 21 Nov 11:41:56 11:45:45 35° 71° (ENE) 11:49:33 437.445
Oscar 19 21 Nov 11:49:08 11:53:21 27° 66° (ENE) 11:57:34 437.125/150
AO-85 21 Nov 12:13:00 12:17:17 34° 52° (NE) 12:21:51 145.980
AO-7 21 Nov 12:14:55 12:18:16 13° 46° (NE) 12:21:36 .
Gurwin Techsat 1B 21 Nov 12:16:03 12:20:49 35° 68° (ENE) 12:25:36 435.225
SPROUT 21 Nov 12:22:20 12:26:34 69° 101° (ESE) 12:30:46 437.525
DUCHIFAT 1 21 Nov 12:27:17 12:30:00 17° 267° (W) 12:32:45 145.980
EO-79 21 Nov 12:37:12 12:37:56 10° 270° (W) 12:38:40 145.935-145.965
NANOSAT C BR1 21 Nov 12:39:51 12:40:57 11° 269° (W) 12:42:02 145.865
ESTCUBE 1 21 Nov 12:45:32 12:48:36 18° 295° (WNW) 12:51:40 437.505/2401.250
BEESAT 2 21 Nov 12:47:33 12:51:24 45° 244° (WSW) 12:55:11 435.950
50 SAT 21 Nov 12:52:53 12:55:03 17° 95° (E) 12:57:13 437.505
M-CUBED/EXP-1 PRIME 21 Nov 12:53:26 12:56:14 22° 62° (ENE) 12:59:12 437.505
UKube-1 21 Nov 12:55:21 12:56:59 12° 91° (E) 12:58:37 .
O/OREOS (USA 219) 21 Nov 12:55:31 13:00:00 54° 107° (ESE) 13:04:30 437.305
FALCONSAT 3 21 Nov 12:56:00 12:59:21 33° 192° (SSW) 13:02:42 435.103
VELOX 1 21 Nov 13:03:22 13:07:48 69° 286° (WNW) 13:12:13 145.980
BUGSAT 1 21 Nov 13:18:15 13:21:10 18° 266° (W) 13:24:04 437.445
Oscar 19 21 Nov 13:27:49 13:32:29 35° 262° (W) 13:37:10 437.125/150
ITAMSAT 1 21 Nov 13:42:58 13:46:38 20° 63° (ENE) 13:50:18 435.822/435.867
NO-84 21 Nov 13:44:59 13:47:26 17° 123° (ESE) 13:50:00 435.350 FM
DX 1 21 Nov 13:47:41 13:52:05 80° 102° (ESE) 13:56:27 434.975-435.025
AO-85 21 Nov 13:53:28 13:57:39 30° 246° (WSW) 14:02:04 145.980
Gurwin Techsat 1B 21 Nov 13:56:13 14:00:45 29° 264° (W) 14:05:19 435.225
SPROUT 21 Nov 14:00:56 14:01:51 11° 298° (WNW) 14:02:45 437.525
AO-7 21 Nov 14:01:14 14:09:18 59° 66° (ENE) 14:17:24 .
ITUPSAT 1 21 Nov 14:09:06 14:09:48 10° 90° (E) 14:10:31 437.325
MOZHAYETS 4 21 Nov 14:15:45 14:18:51 18° 93° (E) 14:21:57
50 SAT 21 Nov 14:24:36 14:27:04 21° 290° (WNW) 14:29:32 437.505
M-CUBED/EXP-1 PRIME 21 Nov 14:27:40 14:30:32 23° 261° (W) 14:33:35 437.505
UKube-1 21 Nov 14:29:04 14:33:19 56° 287° (WNW) 14:37:32 .
FALCONSAT 3 21 Nov 14:36:08 14:37:53 13° 206° (SSW) 14:39:37 435.103
O/OREOS (USA 219) 21 Nov 14:36:54 14:39:45 16° 305° (NW) 14:42:37 437.305
ITAMSAT 1 21 Nov 15:20:34 15:25:40 52° 260° (W) 15:30:47 435.822/435.867
NO-84 21 Nov 15:20:48 15:24:22 49° 322° (NW) 15:28:15 435.350 FM
YUBILEINY 21 Nov 15:28:13 15:35:54 32° 70° (ENE) 15:43:30 435.215
BEESAT 21 Nov 15:33:20 15:38:07 88° 102° (ESE) 15:42:52 436.000
ITUPSAT 1 21 Nov 15:43:22 15:48:07 76° 285° (WNW) 15:52:51 437.325
DOVE 4 21 Nov 15:47:22 15:52:10 47° 72° (ENE) 15:57:11 437.250
MOZHAYETS 4 21 Nov 15:51:52 15:56:10 42° 288° (WNW) 16:00:27
AO-7 21 Nov 15:55:27 16:02:25 30° 264° (W) 16:09:27 .
CUBESAT XI-V 21 Nov 16:04:17 16:08:55 59° 100° (E) 16:13:34 437.345
KKS-1 21 Nov 16:05:33 16:07:18 12° 91° (E) 16:09:02 437.445
XW-2C 21 Nov 16:07:51 16:08:48 11° 65° (ENE) 16:09:46 145.795 - 145.815
LilacSat-2 21 Nov 16:09:41 16:11:21 13° 66° (ENE) 16:13:01 437.200
XW-2F 21 Nov 16:17:12 16:18:58 13° 66° (ENE) 16:20:46 145.980 - 146.000
KAITUO 1B 21 Nov 16:43:05 16:45:50 20° 69° (ENE) 16:48:38 145.475/437.950
CUTE-I 21 Nov 16:56:07 17:01:09 43° 70° (ENE) 17:06:13 437.470
XW-2D 21 Nov 16:58:26 17:02:00 47° 74° (ENE) 17:05:37 145.860 - 145.880
NO-84 21 Nov 17:00:32 17:02:35 14° 342° (NNW) 17:04:42 435.350 FM
RS-15 21 Nov 17:05:10 17:15:22 33° 104° (ESE) 17:25:34 29.354- 29.394
XW-2B 21 Nov 17:13:08 17:16:50 71° 77° (ENE) 17:20:35 145.730 - 145.750
BEESAT 21 Nov 17:14:29 17:15:08 10° 300° (WNW) 17:15:47 436.000
HO-68 21 Nov 17:20:01 17:26:32 39° 65° (ENE) 17:33:05 435.675
CUBEBUG 2 21 Nov 17:22:43 17:25:04 14° 65° (ENE) 17:27:23 437.445
YUBILEINY 21 Nov 17:24:31 17:33:04 56° 270° (W) 17:41:35 435.215
NUDT-PHONESAT 21 Nov 17:25:48 17:29:24 70° 76° (ENE) 17:33:03 437.300
DOVE 4 21 Nov 17:26:25 17:30:04 20° 269° (W) 17:33:50 437.250
XW-2C 21 Nov 17:38:54 17:42:30 50° 260° (W) 17:46:09 145.795 - 145.815
KKS-1 21 Nov 17:39:48 17:44:12 59° 287° (WNW) 17:48:34 437.445
LilacSat-2 21 Nov 17:41:39 17:45:13 42° 261° (W) 17:48:49 437.200
CUBESAT XI-V 21 Nov 17:43:15 17:45:46 15° 296° (WNW) 17:48:18 437.345
XW-2F 21 Nov 17:49:14 17:52:42 39° 262° (W) 17:56:14 145.980 - 146.000
CUTE 1.7 + AOD 2 21 Nov 17:54:47 17:58:49 48° 73° (ENE) 18:02:53 437.475
STARS 21 Nov 18:02:22 18:06:47 85° 280° (W) 18:11:08 437.465
ZACube-1 21 Nov 18:08:14 18:09:46 12° 64° (ENE) 18:11:17 437.345
UWE-3 21 Nov 18:16:42 18:20:30 28° 70° (ENE) 18:24:13 435.000/436.395/437.385
KAITUO 1B 21 Nov 18:16:43 18:19:41 23° 265° (W) 18:22:41 145.475/437.950
SEEDS 21 Nov 18:24:02 18:28:07 63° 75° (ENE) 18:32:16 437.485
AAUSAT CUBESAT 2 21 Nov 18:29:33 18:33:08 30° 71° (ENE) 18:36:46 437.432
XW-2D 21 Nov 18:35:49 18:36:26 10° 269° (W) 18:37:03 145.860 - 145.880
CUTE-I 21 Nov 18:37:08 18:41:20 23° 266° (W) 18:45:35 437.470
XW-2A 21 Nov 18:39:07 18:42:15 40° 74° (ENE) 18:45:23 145.665 - 145.685
STRAND 1 21 Nov 18:50:15 18:54:46 31° 96° (E) 18:59:15 437.568
AO-73 21 Nov 18:56:11 19:00:05 34° 72° (ENE) 19:03:54 145.935
CUBEBUG 2 21 Nov 18:56:41 19:01:12 57° 259° (W) 19:05:39 437.445
nSIGHT-1 21 Nov 19:04:02 19:05:09 11° 129° (SE) 19:06:17 .
HO-68 21 Nov 19:07:30 19:14:10 40° 262° (W) 19:20:52 435.675
Oscar 11 21 Nov 19:11:52 19:15:45 34° 71° (ENE) 19:19:39 .
RS-15 21 Nov 19:14:32 19:26:51 74° 304° (NW) 19:39:10 29.354- 29.394
FO-29 21 Nov 19:15:58 19:21:31 21° 88° (E) 19:26:48 435.910
CUTE 1.7 + AOD 2 21 Nov 19:32:54 19:34:54 13° 269° (W) 19:36:54 437.475
ZACube-1 21 Nov 19:41:14 19:45:32 62° 260° (W) 19:49:45 437.345
ISS 21 Nov 19:48:14 19:51:03 27° 134° (SE) 19:53:52 437.550
UWE-3 21 Nov 19:53:15 19:56:53 24° 265° (W) 20:00:29 435.000/436.395/437.385
Max Valier Satellite 21 Nov 19:54:21 19:55:47 12° 66° (ENE) 19:57:10 145.860
AAUSAT CUBESAT 2 21 Nov 20:05:31 20:08:35 20° 266° (W) 20:11:42 437.432
NO-84 21 Nov 20:17:24 20:20:20 18° 24° (NNE) 20:23:18 435.350 FM
DELFI C3 21 Nov 20:28:38 20:32:26 49° 74° (ENE) 20:36:18 145.870
STRAND 1 21 Nov 20:29:27 20:33:51 30° 293° (WNW) 20:38:15 437.568
AO-73 21 Nov 20:33:18 20:36:22 19° 266° (W) 20:39:24 145.935
nSIGHT-1 21 Nov 20:37:46 20:40:58 69° 324° (NW) 20:44:11 .
Oscar 11 21 Nov 20:48:52 20:51:57 19° 267° (W) 20:55:03 .
FO-29 21 Nov 20:59:23 21:07:15 77° 287° (WNW) 21:14:36 435.910
SO-50 21 Nov 21:09:54 21:14:14 53° 118° (ESE) 21:18:38 436.795
EO-88 21 Nov 21:22:08 21:25:44 71° 259° (WSW) 21:29:22 145.990 - 145.960
ISS 21 Nov 21:24:26 21:27:27 33° 330° (NNW) 21:30:28 437.550
Max Valier Satellite 21 Nov 21:25:42 21:29:11 42° 261° (W) 21:32:40 145.860
UNISAT 6 21 Nov 21:29:00 21:33:05 44° 99° (E) 21:37:08 437.425
O/OREOS (USA 219) 21 Nov 21:30:11 21:30:47 10° 51° (NE) 21:31:24 437.305
RS-15 21 Nov 21:31:49 21:41:54 28° 332° (NNW) 21:51:52 29.354- 29.394
TIGRISAT 21 Nov 21:33:08 21:37:13 44° 99° (E) 21:41:17 435.000
LO-87 21 Nov 21:44:52 21:47:46 23° 70° (ENE) 21:50:39 145.935 - 145.965
NO-84 21 Nov 21:54:02 21:58:19 76° 44° (NE) 22:02:33 435.350 FM
DELFI C3 21 Nov 22:06:08 22:07:28 11° 269° (W) 22:08:48 145.870
ESTCUBE 1 21 Nov 22:06:25 22:10:28 35° 70° (ENE) 22:14:34 437.505/2401.250
PRISM 21 Nov 22:14:28 22:18:30 46° 100° (E) 22:22:29 437.425
nSIGHT-1 21 Nov 22:15:42 22:17:41 15° 342° (NNW) 22:19:40 .
AIST 2D 21 Nov 22:15:58 22:17:37 13° 92° (E) 22:19:18 435.315
PCSat 21 Nov 22:25:43 22:27:19 11° 102° (ESE) 22:28:55 145.827
EO-79 21 Nov 22:46:10 22:46:32 10° 90° (E) 22:46:54 145.935-145.965
FO-29 21 Nov 22:46:27 22:50:55 17° 305° (NW) 22:55:17 435.910
SO-50 21 Nov 22:51:47 22:55:00 19° 316° (NW) 22:58:15 436.795
POLYITAN 1 21 Nov 22:59:43 23:02:14 15° 93° (E) 23:04:45 437.675
ISS 21 Nov 23:03:23 23:04:42 12° 349° (N) 23:06:01 437.550
O/OREOS (USA 219) 21 Nov 23:06:19 23:10:54 90° 263° (W) 23:15:24 437.305
UNISAT 6 21 Nov 23:06:53 23:09:25 16° 295° (WNW) 23:11:56 437.425
TIGRISAT 21 Nov 23:11:02 23:13:31 15° 295° (WNW) 23:16:00 435.000
SPROUT 21 Nov 23:14:21 23:18:26 45° 73° (ENE) 23:22:31 437.525
LO-87 21 Nov 23:18:23 23:21:05 20° 265° (W) 23:23:47 145.935 - 145.965
QB50P2 21 Nov 23:22:06 23:25:51 31° 97° (E) 23:29:36 145.880/145.840
NO-84 21 Nov 23:32:53 23:35:10 14° 238° (WSW) 23:37:25 435.350 FM
ESTCUBE 1 21 Nov 23:44:01 23:47:20 20° 266° (W) 23:50:41 437.505/2401.250
AIST 2D 21 Nov 23:47:41 23:50:53 33° 287° (WNW) 23:54:06 435.315
UKube-1 21 Nov 23:50:46 23:51:01 10° 61° (ENE) 23:51:16 .
PRISM 21 Nov 23:51:03 23:53:20 14° 296° (WNW) 23:55:36 437.425
RS-15 21 Nov 23:51:51 00:00:16 20° 8° (N) 00:08:26 29.354- 29.394
VELOX 1 21 Nov 23:59:10 00:03:35 88° 254° (WSW) 00:08:05 145.980
PCSat 22 Nov 00:04:28 00:09:53 87° 298° (WNW) 00:15:20 145.827
DUCHIFAT 1 22 Nov 00:10:01 00:14:13 80° 104° (ESE) 00:18:21 145.980
EO-79 22 Nov 00:18:31 00:22:39 61° 285° (WNW) 00:26:46 145.935-145.965
NANOSAT C BR1 22 Nov 00:21:09 00:25:18 65° 285° (WNW) 00:29:25 145.865
POLYITAN 1 22 Nov 00:34:15 00:38:11 40° 288° (WNW) 00:42:05 437.675
Gurwin Techsat 1B 22 Nov 00:34:26 00:37:08 14° 90° (E) 00:39:50 435.225
ISS 22 Nov 00:41:02 00:42:21 12° 10° (N) 00:43:38 437.550
DX 1 22 Nov 00:41:56 00:46:14 61° 74° (ENE) 00:50:34 434.975-435.025
50 SAT 22 Nov 00:49:38 00:52:51 90° 351° (N) 00:56:06 437.505
SPROUT 22 Nov 00:52:07 00:54:31 15° 268° (W) 00:56:56 437.525
QB50P2 22 Nov 00:58:18 01:01:26 20° 293° (WNW) 01:04:32 145.880/145.840
BUGSAT 1 22 Nov 00:59:08 01:03:09 66° 101° (E) 01:07:07 437.445
BEESAT 22 Nov 01:05:39 01:06:18 10° 60° (ENE) 01:06:57 436.000
ITUPSAT 1 22 Nov 01:14:25 01:16:31 13° 61° (ENE) 01:18:37 437.325
MOZHAYETS 4 22 Nov 01:17:16 01:20:07 17° 65° (ENE) 01:22:58
UKube-1 22 Nov 01:22:04 01:26:22 77° 256° (WSW) 01:30:43 .
BEESAT 3 22 Nov 01:24:28 01:27:22 20° 111° (ESE) 01:30:17 437.485
nSIGHT-1 22 Nov 01:29:50 01:32:13 19° 22° (NNE) 01:34:38 .
Oscar 19 22 Nov 01:39:27 01:44:38 85° 104° (ESE) 01:49:49 437.125/150
PCSat 22 Nov 01:51:00 01:54:05 15° 317° (NW) 01:57:10 145.827
AO-7 22 Nov 02:05:22 02:10:46 18° 92° (E) 02:16:08 .
M-CUBED/EXP-1 PRIME 22 Nov 02:05:26 02:09:06 23° 100° (E) 02:12:46 437.505
RS-15 22 Nov 02:06:15 02:17:23 41° 41° (NE) 02:27:54 29.354- 29.394
Gurwin Techsat 1B 22 Nov 02:12:15 02:17:33 69° 286° (WNW) 02:22:49 435.225
ISS 22 Nov 02:16:35 02:19:36 33° 30° (NNE) 02:22:35 437.550
DX 1 22 Nov 02:21:26 02:22:46 11° 269° (W) 02:24:08 434.975-435.025
BEESAT 2 22 Nov 02:37:22 02:41:00 34° 115° (ESE) 02:44:41 435.950
BEESAT 22 Nov 02:38:32 02:43:19 89° 250° (WSW) 02:48:07 436.000
ITUPSAT 1 22 Nov 02:48:57 02:53:43 71° 258° (WSW) 02:58:30 437.325
MOZHAYETS 4 22 Nov 02:52:27 02:56:52 48° 261° (W) 03:01:17
BEESAT 3 22 Nov 03:00:59 03:04:39 34° 308° (NW) 03:08:21 437.485
KKS-1 22 Nov 03:03:33 03:04:59 11° 62° (ENE) 03:06:25 437.445
nSIGHT-1 22 Nov 03:05:33 03:08:44 67° 220° (SW) 03:11:54 .
CUBESAT XI-V 22 Nov 03:06:29 03:10:55 51° 73° (ENE) 03:15:24 437.345
Oscar 19 22 Nov 03:21:13 03:23:13 12° 300° (WNW) 03:25:12 437.125/150
